Starlink 32223

operational
NORAD ID: 60373 Int'l Des: 2024-138 Owner: SPXS Country: US Constellation: starlink
LEOCIRCULAR

About Starlink 32223

Description loading...

Live Position

Loading 3D Globe...

Upcoming Passes

Altitude History

Altitude vs Time

uPlot chart will show altitude changes over time

Two-Line Element Set

1 60373U 24138U 25260.65208996 .00000599 00000-0 32341-4 0 9997
2 60373 53.1605 33.4245 0001156 60.5501 299.5615 15.30195672 64031
Epoch: Sep 17, 2025 • Age: 23 hours

Current Status

Altitude 494.4 km
Velocity 7.62 km/s
Sub-Earth Point -53.17°S, 73.92°E
Launch Date Aug 4, 2024
Age 1.1 years
Type internet

Technical Details

Classification Payload
Mass 730.00 kg
Dry Mass 700.00 kg
Total Mass 730.00 kg
Length 0.30 m
Diameter 4.10 m
Span 29.00 m
Shape Box + pan
Manufacturer SPXS
Bus Type Starlink V2M
Phase Status In Orbit
Owner/State SPXS/US

Large Constellations

Loading constellations...